[[{"header":{"parameterUnit":"m.s-1","parameterCategory":2,"la1":30.2992,"la2":30.254,"lo1":-89.0895,"lo2":-89.0443,"dy":0.0025,"dx":0.0025,"nx":19,"ny":19,"refTime":"2026-04-11T21:00:00:Z","depth":"0","parameterNumber":2,"parameterNumberName":"U-component_of_CURRENTS"},"data":[0,0,0,0.139,0.139,0.1366,0.1365,0.1156,0.1154,0,0,0,0,0,0,0,0,0,0,0,0.1381,0.1381,0.139,0.139,0.1366,0.1365,0.1157,0.1154,0,0,0,0,0,0,0,0,0,0,0,0.1381,0.1381,0.1381,0.139,0.1366,0.1365,0.1157,0.1213,0,0,0,0,0,0,0,0,0,0,0.1256,0.1279,0.1381,0.1381,0.1391,0.1366,0.1365,0.1217,0.1209,0.1125,0,0.1131,0,0.1153,0.1139,0.1138,0,0,0,0.1363,0.1286,0.1291,0.1381,0.1391,0.1366,0.1369,0.1214,0.1205,0.1114,0.1129,0.1123,0.115,0.1137,0.1136,0.1017,0.1017,0,0,0.1364,0.1356,0.1298,0.1286,0.1392,0.137,0.1369,0.121,0.1192,0.1128,0.1119,0.1146,0.1136,0.1134,0.1016,0.1017,0,0,0,0.1387,0.1357,0.1368,0.1293,0.1311,0.137,0.1368,0.1199,0.1207,0.1117,0.1144,0.1134,0.1131,0.1016,0.1016,0.1073,0,0,0,0.1386,0.1373,0.1369,0.1361,0.1316,0.1279,0.136,0.1217,0.1202,0.1145,0.1134,0.1129,0.1015,0.1016,0.1071,0.1075,0,0,0,0.138,0.1372,0.1375,0.1361,0.1368,0.1284,0.1282,0.1215,0.1217,0.1138,0.1128,0.1015,0.1016,0.1068,0.1071,0.1084,0,0,0,0.1363,0.1355,0.1375,0.1364,0.1368,0.1348,0.1283,0.1239,0.1177,0.1133,0.1015,0.1016,0.1068,0.1069,0.1082,0.1096,0.1105,0,0,0.1344,0.1352,0.1347,0.1365,0.1363,0.1349,0.1314,0.1209,0.1164,0.1048,0.1046,0.1072,0.1071,0.1083,0.1154,0.1162,0,0,0,0.1335,0.1335,0.1335,0.134,0.1335,0.1324,0.1255,0.1226,0.116,0.114,0.1076,0.1074,0.108,0.1085,0.1091,0.0803,0.1021,0.1021,0.1021,0.128,0.1302,0.1299,0.1321,0.1311,0.1289,0.1268,0.1218,0.1162,0.1167,0.1125,0.1176,0.1184,0.1189,0.0892,0.1141,0.1141,0.1141,0.1142,0.126,0.1264,0.1287,0.1296,0.13,0.1273,0.1249,0.1236,0.1204,0.1177,0.1181,0.115,0.1199,0.088,0.1145,0.1145,0.1144,0.1144,0.1144,0.123,0.124,0.1251,0.1271,0.1273,0.1272,0.1267,0.1254,0.1242,0.1252,0.1238,0.1237,0.0949,0.1256,0.1256,0.1256,0.1256,0.1256,0.1256,0.1196,0.1213,0.1225,0.1249,0.1261,0.1274,0.1276,0.1279,0.1288,0.1285,0.1285,0.093,0.121,0.1198,0.1258,0.1258,0.1257,0.1257,0.1257,0.1175,0.1177,0.1199,0.1215,0.1253,0.1273,0.1285,0.1311,0.1318,0.1333,0.0967,0.13,0.1274,0.1268,0.1257,0.1328,0.1328,0.1328,0.1328,0.115,0.1158,0.1178,0.1202,0.1236,0.127,0.1285,0.128,0.1094,0.0942,0.083,0.0769,0.0779,0.0717,0.0724,0.0698,0.0626,0.0625,0.0624,0.1139,0.1152,0.1154,0.1184,0.1228,0.1272,0.1265,0.1161,0.0844,0.0561,0.0418,0.0448,0.0323,0.0362,0.024,0.0273,0.0224,0,0]},{"header":{"parameterUnit":"m.s-1","parameterCategory":2,"la1":30.2992,"la2":30.254,"lo1":-89.0895,"lo2":-89.0443,"dy":0.0025,"dx":0.0025,"nx":19,"ny":19,"refTime":"2026-04-11T21:00:00:Z","depth":"0","parameterNumber":3,"parameterNumberName":"V-component_of_CURRENTS"},"data":[0,0,0,-0.1263,-0.1261,-0.1106,-0.1105,-0.0812,-0.081,0,0,0,0,0,0,0,0,0,0,0,-0.1312,-0.1312,-0.1263,-0.1261,-0.1106,-0.1105,-0.0813,-0.081,0,0,0,0,0,0,0,0,0,0,0,-0.1312,-0.1312,-0.1311,-0.126,-0.1106,-0.1105,-0.0813,-0.0946,0,0,0,0,0,0,0,0,0,0,-0.1106,-0.1178,-0.1312,-0.1311,-0.126,-0.1107,-0.1105,-0.0953,-0.0938,-0.0864,0,-0.0857,0,-0.0838,-0.0791,-0.079,0,0,0,-0.1231,-0.1191,-0.1152,-0.1311,-0.1259,-0.1107,-0.1167,-0.0945,-0.0928,-0.0844,-0.0853,-0.0843,-0.0833,-0.0789,-0.0787,-0.0577,-0.0577,0,0,-0.1239,-0.1271,-0.1165,-0.1142,-0.1237,-0.1173,-0.1163,-0.0935,-0.0921,-0.0852,-0.0836,-0.0829,-0.0787,-0.0785,-0.0577,-0.0577,0,0,0,-0.1284,-0.1277,-0.1245,-0.1154,-0.114,-0.1169,-0.1158,-0.093,-0.0921,-0.0833,-0.0825,-0.0785,-0.0782,-0.0577,-0.0577,-0.0647,0,0,0,-0.1288,-0.1305,-0.1249,-0.1264,-0.1145,-0.1047,-0.1158,-0.0937,-0.0911,-0.0827,-0.0785,-0.0779,-0.0577,-0.0577,-0.0646,-0.0669,0,0,0,-0.1316,-0.1307,-0.1297,-0.1266,-0.1214,-0.1051,-0.1028,-0.0931,-0.0907,-0.0789,-0.0778,-0.0577,-0.0577,-0.0645,-0.0666,-0.0597,0,0,0,-0.1341,-0.1315,-0.1298,-0.1254,-0.1216,-0.1115,-0.1029,-0.0933,-0.084,-0.0784,-0.0577,-0.0577,-0.0644,-0.0665,-0.0597,-0.0422,-0.0408,0,0,-0.1319,-0.1313,-0.1284,-0.1265,-0.119,-0.1134,-0.1037,-0.0888,-0.0805,-0.064,-0.0635,-0.0646,-0.0666,-0.0597,-0.0398,-0.0385,0,0,0,-0.1283,-0.1267,-0.1239,-0.1192,-0.1124,-0.106,-0.0939,-0.0874,-0.0739,-0.0754,-0.0618,-0.0627,-0.0581,-0.0475,-0.0465,-0.0258,-0.0575,-0.0575,-0.0575,-0.1278,-0.1242,-0.1194,-0.1144,-0.1089,-0.0992,-0.0922,-0.081,-0.0738,-0.0699,-0.0665,-0.0633,-0.0522,-0.0512,-0.0303,-0.0644,-0.0644,-0.0644,-0.0644,-0.1243,-0.1205,-0.1176,-0.1124,-0.1069,-0.0995,-0.0873,-0.0828,-0.0697,-0.0681,-0.0632,-0.053,-0.0504,-0.0285,-0.0648,-0.0648,-0.0647,-0.0647,-0.0647,-0.1227,-0.1205,-0.1188,-0.1131,-0.1078,-0.1006,-0.0929,-0.0858,-0.0741,-0.0715,-0.0518,-0.0514,-0.0332,-0.0671,-0.067,-0.067,-0.067,-0.067,-0.067,-0.1213,-0.1193,-0.1176,-0.1132,-0.1107,-0.1062,-0.0961,-0.0877,-0.0678,-0.0555,-0.0552,-0.0272,-0.0639,-0.065,-0.0667,-0.0668,-0.0668,-0.0668,-0.0668,-0.1174,-0.1179,-0.1159,-0.1144,-0.1096,-0.1026,-0.0966,-0.072,-0.0601,-0.0453,-0.0066,-0.0429,-0.0368,-0.0373,-0.0376,-0.032,-0.032,-0.032,-0.032,-0.1156,-0.1154,-0.1135,-0.1115,-0.1078,-0.1004,-0.0786,-0.0517,-0.0095,0.0177,0.019,0.024,0.0217,0.0313,0.0292,0.0304,0.0531,0.0532,0.0533,-0.1139,-0.1141,-0.1126,-0.1106,-0.1059,-0.0956,-0.0672,-0.0182,0.0414,0.0581,0.0441,0.0405,0.0484,0.0431,0.0582,0.0536,0.0554,0,0]}],[{"header":{"parameterUnit":"m.s-1","parameterCategory":2,"la1":30.2992,"la2":30.254,"lo1":-89.0895,"lo2":-89.0443,"dy":0.0025,"dx":0.0025,"nx":19,"ny":19,"refTime":"2026-04-11T21:00:00:Z","depth":"2","parameterNumber":2,"parameterNumberName":"U-component_of_CURRENTS"},"data":[0,0,0,0.086,0.0861,0.0981,0.0982,0.1196,0.1198,0,0,0,0,0,0,0,0,0,0,0,0.0829,0.083,0.086,0.0861,0.0981,0.0982,0.1196,0.1198,0,0,0,0,0,0,0,0,0,0,0,0.0829,0.083,0.083,0.0862,0.0981,0.0982,0.1195,0.1098,0,0,0,0,0,0,0,0,0,0,0.0977,0.0965,0.083,0.083,0.0862,0.0981,0.0982,0.1093,0.1104,0.1148,0,0.1152,0,0.1162,0.121,0.1211,0,0,0,0.0895,0.0956,0.0943,0.083,0.0863,0.0981,0.0937,0.1099,0.1111,0.1163,0.1155,0.1162,0.1165,0.1211,0.1212,0.1384,0.1384,0,0,0.0889,0.0903,0.0934,0.095,0.0877,0.0933,0.094,0.1106,0.114,0.1156,0.1167,0.1169,0.1213,0.1214,0.1383,0.1384,0,0,0,0.0847,0.0899,0.0883,0.0942,0.0949,0.0935,0.0944,0.1134,0.1115,0.1169,0.1171,0.1214,0.1216,0.1383,0.1384,0.1351,0,0,0,0.0844,0.087,0.0879,0.0896,0.0944,0.1043,0.0969,0.1104,0.1122,0.117,0.1214,0.1218,0.1382,0.1383,0.135,0.1333,0,0,0,0.0827,0.0871,0.0867,0.0895,0.0925,0.1039,0.1034,0.1109,0.1122,0.1211,0.1218,0.1382,0.1383,0.135,0.1334,0.133,0,0,0,0.086,0.0876,0.0869,0.0894,0.0923,0.0973,0.1034,0.1114,0.1187,0.1215,0.1382,0.1384,0.135,0.1334,0.133,0.1198,0.1187,0,0,0.089,0.0882,0.0888,0.0882,0.0901,0.096,0.1038,0.1157,0.1222,0.1337,0.1341,0.135,0.1334,0.133,0.1264,0.125,0,0,0,0.0903,0.091,0.0914,0.0928,0.0949,0.1005,0.1111,0.1169,0.1291,0.1262,0.1383,0.1374,0.1372,0.1294,0.1284,0.1389,0.1389,0.1389,0.1389,0.0999,0.0965,0.0983,0.0959,0.0992,0.1064,0.1119,0.1225,0.1294,0.1346,0.1371,0.1379,0.1297,0.1288,0.1401,0.1401,0.1401,0.1401,0.1401,0.1041,0.1049,0.102,0.1029,0.1044,0.1117,0.1184,0.1232,0.133,0.1382,0.1381,0.1293,0.1274,0.1399,0.1399,0.1399,0.14,0.14,0.14,0.111,0.1104,0.1104,0.1106,0.1136,0.1166,0.119,0.1248,0.1313,0.1315,0.1263,0.1262,0.1339,0.1338,0.1338,0.1338,0.1338,0.1338,0.1338,0.1188,0.1172,0.1184,0.1186,0.1187,0.1199,0.1226,0.1229,0.1219,0.1223,0.1222,0.1358,0.136,0.1337,0.1337,0.1337,0.1337,0.1337,0.1337,0.1237,0.1245,0.1245,0.1244,0.1219,0.1157,0.1185,0.1116,0.1141,0.1094,0.1159,0.1164,0.1161,0.1169,0.1143,0.1092,0.1092,0.1092,0.1092,0.127,0.1274,0.1251,0.1221,0.1187,0.1121,0.0985,0.0781,0.0757,0.0609,0.0629,0.0581,0.0603,0.0567,0.0589,0.055,0.0345,0.0343,0.0341,0.1264,0.1261,0.1231,0.1205,0.1139,0.1046,0.0812,0.0385,0.0062,0.0303,0.0406,0.106,0.1046,0.1058,0.1053,0.1067,0.1026,0,0]},{"header":{"parameterUnit":"m.s-1","parameterCategory":2,"la1":30.2992,"la2":30.254,"lo1":-89.0895,"lo2":-89.0443,"dy":0.0025,"dx":0.0025,"nx":19,"ny":19,"refTime":"2026-04-11T21:00:00:Z","depth":"2","parameterNumber":3,"parameterNumberName":"V-component_of_CURRENTS"},"data":[0,0,0,0.0726,0.0726,0.0706,0.0706,0.053,0.0528,0,0,0,0,0,0,0,0,0,0,0,0.0712,0.0711,0.0726,0.0726,0.0706,0.0706,0.053,0.0528,0,0,0,0,0,0,0,0,0,0,0,0.0712,0.0711,0.0711,0.0726,0.0706,0.0706,0.0531,0.0579,0,0,0,0,0,0,0,0,0,0,0.0615,0.0627,0.0712,0.0711,0.0726,0.0706,0.0706,0.0583,0.0576,0.0501,0,0.0496,0,0.052,0.0515,0.0514,0,0,0,0.0709,0.0633,0.0636,0.0711,0.0726,0.0706,0.071,0.058,0.0572,0.0491,0.0494,0.049,0.0517,0.0513,0.0512,0.0481,0.0482,0,0,0.071,0.0695,0.0642,0.0632,0.0714,0.0711,0.071,0.0577,0.0556,0.0494,0.0487,0.0514,0.0512,0.051,0.048,0.0481,0,0,0,0.0725,0.0695,0.0705,0.0637,0.0652,0.0711,0.0709,0.0562,0.0568,0.0485,0.0512,0.0511,0.0508,0.0479,0.0481,0.059,0,0,0,0.0724,0.0705,0.0705,0.0694,0.0656,0.0628,0.0697,0.0576,0.0564,0.0513,0.0511,0.0506,0.0477,0.048,0.0584,0.059,0,0,0,0.0714,0.0704,0.0703,0.0693,0.0697,0.0631,0.0629,0.0575,0.0579,0.0514,0.0506,0.0476,0.0479,0.0579,0.0583,0.0521,0,0,0,0.0697,0.0702,0.0702,0.0728,0.0697,0.0752,0.0631,0.0626,0.0582,0.051,0.0478,0.048,0.0578,0.0578,0.0519,0.068,0.0704,0,0,0.0705,0.0702,0.0728,0.0729,0.0798,0.0754,0.0819,0.0691,0.0599,0.0503,0.0504,0.0586,0.0582,0.0521,0.0843,0.0863,0,0,0,0.0734,0.0744,0.0769,0.0804,0.0841,0.0869,0.0799,0.0774,0.0695,0.059,0.0613,0.0607,0.0563,0.0658,0.0674,0.0494,0.0493,0.0493,0.0493,0.0715,0.0766,0.0815,0.0874,0.0911,0.0942,0.0954,0.09,0.0795,0.0797,0.0719,0.0775,0.0886,0.0897,0.0765,0.0766,0.0766,0.0767,0.0767,0.0754,0.0797,0.085,0.0894,0.0949,0.0984,0.1033,0.0993,0.0929,0.0873,0.0824,0.08,0.0921,0.0776,0.0774,0.0773,0.0772,0.0771,0.0771,0.0761,0.0788,0.079,0.0859,0.091,0.0967,0.1002,0.1007,0.0962,0.0959,0.0922,0.0922,0.0758,0.0872,0.0872,0.0872,0.0872,0.0872,0.0872,0.0756,0.0778,0.0773,0.0824,0.0844,0.088,0.0935,0.0944,0.0987,0.1021,0.1021,0.0807,0.0804,0.0761,0.0869,0.0869,0.087,0.087,0.087,0.078,0.0751,0.0767,0.0764,0.0822,0.09,0.0919,0.1012,0.0994,0.1044,0.1056,0.1053,0.0997,0.0986,0.0948,0.1096,0.1096,0.1096,0.1096,0.0774,0.0774,0.0764,0.0781,0.0845,0.0921,0.1038,0.1155,0.1207,0.1271,0.1262,0.1332,0.1321,0.1282,0.1265,0.1231,0.1452,0.1452,0.1452,0.0781,0.0781,0.0769,0.0785,0.0869,0.0975,0.115,0.1221,0.1283,0.1457,0.123,0.1138,0.1224,0.1213,0.1134,0.1114,0.1051,0,0]}],[{"header":{"parameterUnit":"m.s-1","parameterCategory":2,"la1":30.2992,"la2":30.254,"lo1":-89.0895,"lo2":-89.0443,"dy":0.0025,"dx":0.0025,"nx":19,"ny":19,"refTime":"2026-04-11T21:00:00:Z","depth":"4","parameterNumber":2,"parameterNumberName":"U-component_of_CURRENTS"},"data":[0,0,0,-0.0279,-0.0279,-0.0312,-0.0312,-0.0182,-0.018,0,0,0,0,0,0,0,0,0,0,0,-0.0264,-0.0265,-0.0279,-0.028,-0.0312,-0.0312,-0.0182,-0.018,0,0,0,0,0,0,0,0,0,0,0,-0.0264,-0.0264,-0.0265,-0.028,-0.0312,-0.0312,-0.0182,-0.0199,0,0,0,0,0,0,0,0,0,0,-0.0188,-0.0195,-0.0264,-0.0265,-0.028,-0.0312,-0.0312,-0.0202,-0.0198,-0.012,0,-0.0132,0,-0.0152,-0.0168,-0.0167,0,0,0,-0.0273,-0.0199,-0.0215,-0.0265,-0.028,-0.0312,-0.0296,-0.0201,-0.0196,-0.0114,-0.0131,-0.0127,-0.015,-0.0167,-0.0166,-0.0016,-0.0015,0,0,-0.0271,-0.0256,-0.0219,-0.0213,-0.0294,-0.0295,-0.0297,-0.02,-0.0188,-0.0131,-0.0125,-0.0148,-0.0166,-0.0164,-0.0016,-0.0016,0,0,0,-0.027,-0.0254,-0.0277,-0.0217,-0.0236,-0.0296,-0.0298,-0.0192,-0.0203,-0.0124,-0.0146,-0.0165,-0.0162,-0.0016,-0.0016,0.0012,0,0,0,-0.0269,-0.0255,-0.0276,-0.0264,-0.024,-0.0237,-0.0292,-0.021,-0.02,-0.0147,-0.0165,-0.0161,-0.0017,-0.0016,0.0011,-0.0018,0,0,0,-0.0262,-0.0253,-0.0262,-0.0264,-0.0283,-0.024,-0.0245,-0.0209,-0.0212,-0.0167,-0.016,-0.0017,-0.0016,0.0009,-0.0019,-0.005,0,0,0,-0.0238,-0.0237,-0.0261,-0.0257,-0.0283,-0.0264,-0.0247,-0.0215,-0.0177,-0.0164,-0.0017,-0.0016,0.0009,-0.0019,-0.005,-0.012,0,0,0,-0.0222,-0.0235,-0.0231,-0.0254,-0.0238,-0.0259,-0.0211,-0.0159,-0.0138,-0.0035,-0.0033,0.0011,-0.0019,-0.005,-0.0078,0,0,0,0,-0.0216,-0.0216,-0.0214,-0.0213,-0.0208,-0.0192,-0.0158,-0.0126,-0.0056,-0.0116,0.0018,-0.0003,-0.0024,-0.0063,-0.0012,-0.0013,-0.0013,-0.0013,-0.0013,-0.0174,-0.0182,-0.0166,-0.0169,-0.0152,-0.0126,-0.0101,-0.005,-0.0014,0.0018,0.0027,0.0026,-0.001,0.0055,0.0055,0.0056,0.0056,0.0056,0.0056,-0.015,-0.0146,-0.0139,-0.0129,-0.0109,-0.0068,-0.0016,0.0003,0.0043,0.0068,0.0048,-0.0021,0.0059,0.0058,0.0058,0.0057,0.0057,0.0057,0.0057,-0.0127,-0.0127,-0.0122,-0.0106,-0.0071,-0.0047,-0.0039,0.0003,0.0038,0.0034,-0.0042,0.0018,0.0005,0.0018,0.0018,0.0018,0.0018,0.0018,0.0017,-0.0114,-0.0109,-0.0108,-0.0086,-0.0076,-0.0066,-0.0057,-0.0076,-0.0059,-0.0056,0.0015,0.0011,0.0013,0.0001,0.0014,0.0014,0.0015,0.0015,0.0015,-0.0115,-0.0108,-0.0114,-0.0109,-0.0101,-0.0094,-0.0094,-0.0167,-0.0193,-0.0218,-0.0104,-0.0097,-0.0133,-0.0129,-0.0147,-0.0177,-0.0178,-0.0179,0,-0.0116,-0.0113,-0.0133,-0.0143,-0.0147,-0.0122,-0.0191,-0.023,-0.0227,-0.02,-0.0181,-0.0046,-0.0043,-0.0077,-0.0076,-0.0094,0,0,0,-0.013,-0.0133,-0.0154,-0.0165,-0.0169,-0.0202,-0.0212,-0.0245,-0.019,-0.0301,-0.0202,-0.0196,-0.0129,0.0003,-0.0037,-0.0035,-0.0057,0,0]},{"header":{"parameterUnit":"m.s-1","parameterCategory":2,"la1":30.2992,"la2":30.254,"lo1":-89.0895,"lo2":-89.0443,"dy":0.0025,"dx":0.0025,"nx":19,"ny":19,"refTime":"2026-04-11T21:00:00:Z","depth":"4","parameterNumber":3,"parameterNumberName":"V-component_of_CURRENTS"},"data":[0,0,0,0.0715,0.0716,0.0757,0.0758,0.0848,0.0849,0,0,0,0,0,0,0,0,0,0,0,0.0711,0.0711,0.0715,0.0716,0.0757,0.0758,0.0848,0.0849,0,0,0,0,0,0,0,0,0,0,0,0.0711,0.0711,0.0712,0.0716,0.0757,0.0758,0.0848,0.0808,0,0,0,0,0,0,0,0,0,0,0.0763,0.0753,0.0711,0.0712,0.0716,0.0757,0.0758,0.0806,0.081,0.0838,0,0.0852,0,0.0848,0.0855,0.0856,0,0,0,0.0719,0.0749,0.0758,0.0712,0.0716,0.0757,0.074,0.0808,0.0813,0.0845,0.0853,0.0856,0.0849,0.0856,0.0857,0.0902,0.0902,0,0,0.0717,0.0721,0.0754,0.0762,0.0737,0.0738,0.0741,0.0811,0.0823,0.0853,0.0857,0.0851,0.0857,0.0858,0.0902,0.0902,0,0,0,0.0708,0.0719,0.0726,0.0759,0.0761,0.0739,0.0742,0.082,0.0822,0.0858,0.0852,0.0857,0.0859,0.0902,0.0902,0.096,0,0,0,0.0707,0.0713,0.0725,0.0728,0.0759,0.0786,0.075,0.0818,0.0825,0.0851,0.0857,0.0859,0.0903,0.0902,0.0959,0.0959,0,0,0,0.0707,0.0713,0.072,0.0728,0.0743,0.0784,0.079,0.0819,0.0821,0.0856,0.086,0.0903,0.0902,0.0958,0.0957,0.0992,0,0,0,0.0706,0.0712,0.0721,0.0731,0.0742,0.0765,0.0789,0.0821,0.085,0.0858,0.0903,0.0902,0.0958,0.0957,0.0991,0.0909,0,0,0,0.0706,0.0713,0.0717,0.0725,0.0745,0.0759,0.0792,0.0844,0.0848,0.0884,0.0885,0.0959,0.0957,0.0991,0.0875,0,0,0,0,0.0711,0.0718,0.0724,0.0743,0.0761,0.0799,0.0833,0.0856,0.09,0.0861,0.0931,0.0927,0.0948,0.0895,0.0899,0.0899,0.0899,0.0899,0.0899,0.0713,0.0723,0.074,0.0764,0.0787,0.0832,0.0863,0.0895,0.0912,0.0933,0.0955,0.0988,0.0932,0.0945,0.0945,0.0945,0.0945,0.0945,0.0946,0.0709,0.0717,0.0754,0.0776,0.0825,0.0863,0.0917,0.0942,0.0989,0.098,0.0999,0.0934,0.0951,0.095,0.0949,0.0948,0.0948,0.0948,0.0947,0.0702,0.0708,0.0738,0.0785,0.0845,0.0894,0.0941,0.0982,0.1021,0.1041,0.0993,0.1017,0.1036,0.1069,0.1069,0.1069,0.1069,0.107,0.107,0.0678,0.0706,0.0739,0.0794,0.084,0.0895,0.097,0.1002,0.1048,0.102,0.106,0.1029,0.1025,0.104,0.1072,0.1072,0.1071,0.1071,0.1071,0.0653,0.068,0.0719,0.0766,0.086,0.0889,0.0962,0.0995,0.1033,0.1033,0.1012,0.1015,0.0984,0.0981,0.0994,0.1013,0.1012,0.1011,0,0.0639,0.0652,0.0714,0.0781,0.0841,0.0892,0.0909,0.0952,0.0982,0.0954,0.1047,0.1023,0.1024,0.0988,0.0984,0.0997,0,0,0,0.0627,0.0648,0.0692,0.0769,0.084,0.0871,0.0912,0.0909,0.0961,0.0973,0.0988,0.0994,0.1057,0.1079,0.1037,0.1032,0.1055,0,0]}]]